Starlink 30570

operational
NORAD ID: 58095 Int'l Des: 2023-160 Owner: SPXS Country: US Constellation: starlink
LEOCIRCULAR

About Starlink 30570

Description loading...

Live Position

Loading 3D Globe...

Upcoming Passes

Altitude History

Altitude vs Time

uPlot chart will show altitude changes over time

Two-Line Element Set

1 58095U 23160W 25352.86100504 .00000368 00000-0 42307-4 0 9997
2 58095 43.0026 159.0713 0001422 264.4146 95.6534 15.02534994120766
Epoch: Dec 18, 2025 • Age: 10 hours

Current Status

Altitude 558.4 km
Velocity 7.58 km/s
Sub-Earth Point 6.56°N, 136.68°E
Launch Date Oct 18, 2023
Age 2.1 years
Type internet

Technical Details

Classification Payload
Mass 730.00 kg
Dry Mass 700.00 kg
Total Mass 730.00 kg
Length 0.30 m
Diameter 4.10 m
Span 29.00 m
Shape Box + pan
Manufacturer SPXS
Bus Type Starlink V2M
Phase Status In Orbit
Owner/State SPXS/US

Large Constellations

Loading constellations...